sat.trackr.live / text

‹ back to catalog

CHUANGXIN 16A (CX-16A)

NORAD 53586 · 2022-102A

PAYLOAD ACTIVE UNKNOWN

§ Identity

Operator
Country
PRC
Launch date
2022-08-23
Launch site
XICLF
Launch vehicle
Mass (kg)
RCS (m²)

External: N2YO · Heavens-Above · Gunter

§ Orbital elements

Epoch: 2026-09-20T03:42:11.176128Z

Period
95.61 min
Inclination
28.9951°
Eccentricity
0.0004681
Mean motion
15.06188402 rev/d
Perigee alt
544.6 km
Apogee alt
551.1 km
Semi-major
6,926.0 km
B*
7.3654e-5
RAAN
64.3055°
Arg perigee
296.6704°
Mean anomaly
63.3416°
Rev number
22,385

§ Raw data

CHUANGXIN 16A (CX-16A)1 53586U 22102A   26263.15429602  .00001264  00000+0  73654-4 0  99932 53586  28.9951  64.3055 0004681 296.6704  63.3416 15.06188402223857

JSON: /api/v1/satellites/53586 · /tle

For live sub-satellite position, see the globe view (requires WebGL).

§ Visibility from observer

Set your observer location to see the next 7 days of passes ≥ 10°. The values pass through the URL so the page stays shareable.

No JS? Fill the form by hand. The geolocation button needs JavaScript.